Princeton/Rocky Hill (39N)
Princeton, NJ
Field Elevation: 128
Lat: 40°23.94N  Long: 74°39.54W
CTAF/Unicom Freq: 122.7250
   
     For Weather-by-Phone, call (609)-924-3901
Weather Advisories
10/23/2014 02:17 Z
Altimeter 29.78" Hg
Wind 350° @ 8 KT
Gusts --
Visibility 10 SM
Ceiling SCT020 BKN027 OVC036
Temperature 11° C (52° F)
Dewpoint 10° C (50° F)
Relative Humidity 93%
Density Altitude --
Condensation Altitude --
  Wind and Runways
Indicated Runway = 28
History
 
 
More Info
All DigiWx sites map
 
NOAA Forecast
 
Airport IQ 5010
(OCNJ) Ocean City
(PN44) Upper Gwynedd Heliport
 
about DigiWx
 
FAA Disclaimer: The data displayed is for advisory purposes only and is not to be used for flight planning or operations. For official data, please call (609)-924-3901 to hear the current automated AWOS voice message.
  METAR 39N 230217Z AUTO 35008KT 10SM SCT020 BKN027 OVC036 11/10 A2978